Location: New Canada
(47.1017°N, 68.5042°W)
Time: 21:56:01
(UTC+00:00)

COSMOS 1818 DEB - Visible Passes

Search period start: 29 November 2023 00:00
Search period end: 09 December 2023 00:00
Orbit: 754 x 785 km, 65.0° (Epoch: 12 November)

Date Brightness Start Highest point End Pass type
(mag) Time Alt. Az. Time Alt. Az. Time Alt. Az.
29 Nov ? 22:42:24 10° W 22:46:38 23° NNW 22:50:18 12° NNE visible
30 Nov ? 00:29:59 10° NNW 00:30:34 11° NNW 00:30:34 11° NNW visible
30 Nov ? 22:04:19 10° W 22:08:58 29° NW 22:13:39 10° NNE visible
30 Nov ? 23:51:38 10° NW 23:53:58 13° NNW 23:54:17 13° N visible
01 Dec ? 21:26:23 10° WSW 21:31:22 38° NW 21:36:24 10° NNE visible
01 Dec ? 23:13:13 10° NW 23:16:06 14° NNW 23:18:00 12° N visible
02 Dec ? 22:34:50 10° WNW 22:38:16 17° NNW 22:41:41 10° NNE visible
03 Dec ? 21:56:32 10° WNW 22:00:29 20° NNW 22:04:27 10° NNE visible
03 Dec ? 23:44:07 10° NNW 23:45:37 11° N 23:45:37 11° N visible
04 Dec ? 21:18:21 10° W 21:22:45 25° NW 21:27:12 10° NNE visible
04 Dec ? 23:05:52 10° NNW 23:07:54 12° N 23:09:17 11° N visible
05 Dec ? 22:27:28 10° NW 22:30:00 13° NNW 22:32:32 10° NNE visible
06 Dec ? 21:49:02 10° NW 21:52:07 15° NNW 21:55:13 10° NNE visible
06 Dec ? 23:35:49 10° NNW 23:36:51 11° N 23:36:51 11° N visible
07 Dec ? 21:10:40 10° WNW 21:14:17 18° NNW 21:17:56 10° NNE visible
07 Dec ? 22:58:05 10° NNW 22:59:45 11° N 23:00:31 11° N visible
08 Dec ? 22:19:58 10° NNW 22:21:47 12° N 22:23:36 10° NNE visible
